Regional Weather Roundup
Issued by NWS Newport/Morehead, NC

Current Version | Previous Version | Text Only | Print | Product List | Glossary Off
Versions: 1 2 3 4 5 6 7 8 9 10 11 12 13 14 15 16 17 18 19 20 21 22 23 24 25 26 27 28 29 30 31 32 33 34 35 36 37 38 39 40 41 42 43 44 45 46 47 48 49 50
000 ASUS42 KMHX 240925 RWRMHX WEATHER ROUNDUP FOR EASTERN NORTH CAROLINA NATIONAL WEATHER SERVICE NEWPORT/MOREHEAD CITY NC 500 AM EDT SAT JUN 24 2017 NOTE: "FAIR" INDICATES FEW OR NO CLOUDS BELOW 12,000 FEET WITH NO SIGNIFICANT WEATHER AND/OR OBSTRUCTIONS TO VISIBILITY NCZ015>017-031-032-045>047-102-103-241000- NORTH COAST CITY SKY/WX TMP DP RH WIND PRES REMARKS EDENTON CLEAR 80 71 75 SW21G30 29.83F ELIZABETH CITY CLEAR 79 71 76 S22G30 29.80F KITTY HAWK SUNNY 79 70 74 SW12G23 29.83S MANTEO CLEAR 79 73 81 SW25G33 29.85S $$ NCZ045>047-081-094-103-104-241000- CENTRAL COAST CITY SKY/WX TMP DP RH WIND PRES REMARKS FRISCO MOCLDY 79 74 84 SW20G28 29.91S $$ NCZ095-097-098-100-101-241000- SOUTHERN COAST CITY SKY/WX TMP DP RH WIND PRES REMARKS BEAUFORT MOCLDY 80 78 94 SW22G31 29.92F CEDAR ISLAND NOT AVBL JACKSONVILLE CLEAR 79 75 87 SW12G21 29.90F PINEY ISLAND MOSUNNY N/A N/A N/A SW22G32 29.90F WILMINGTON MOCLDY 80 74 81 SW14G26 29.93S $$ NCZ011>013-027>030-043-044-078>080-089-090>093-098-241000- COASTAL PLAIN CITY SKY/WX TMP DP RH WIND PRES REMARKS AHOSKIE N/A 76 71 83 S9 29.79S CLINTON PTCLDY 76 74 91 SW7 29.90R ELIZABETHTOWN NOT AVBL GOLDSBORO CLEAR 78 76 94 SW14G23 29.85F GREENVILLE CLEAR 79 72 78 SW15G25 29.87S HAVELOCK MOCLDY 80 74 81 SW15G33 29.91S KENANSVILLE MOCLDY 77 73 88 S6 29.89F KINSTON PTCLDY 78 72 83 S17G23 29.87F NEW BERN CLEAR 78 74 87 SW14G22 29.90F RICHLANDS MOCLDY 78 74 87 S15 29.91F ROCKY MOUNT MOCLDY 77 72 84 S16G25 29.83S WASHINGTON CLEAR N/A N/A N/A SW13G22 29.85F WHITEVILLE CLEAR 78 73 83 S10G17 29.92F $$ AMZ130-135-150-152-154-156-158-170-250-252-270-ANZ085-086-088-633-658-670-241000- MARINE OBSERVATIONS STATION/POSITION TIME TEMP WIND PRES WAVE SWELL AIR SEA DIR/SP/G HT/PER HT/PER (UTC) (F) (DEG/KT/KT) (MB) (FT/S) (FT/S) CHESAPEAKE LIGHT NOT AVBL 64 E VA BEACH 0850 74 71 210/ 19/ 23 1009.6 6/ 7 2/10 DUCK 0900 80 61 210/ 22/ 29 1009.0 2 E DUCK NOT AVBL OREGON INLET 0900 80 81 210/ 27/ 36 1010.8 13E OREGON INLT 0848 67 N/A 6/ 6 2/ 8 HATTERAS CG 0900 78 78 220/ 17/ 23 1012.3 DIAMOND BUOY 0850 81 80 230/ 23/ 29 1012.4 8/ 7 2/ 9 CAPE LOOKOUT 0900 80 220/ 17/ 23 1013.1 BEAUFORT LAB 0900 80 78 220/ 9/ 19 1012.6 30 SE NEW RVR IN 0908 80 80 230/ 19/ 25 1013.8 30 SE NEW RVR IN 0913 80 N/A 8/ 7 2/11 27 SE WRIGHTSVLE 0908 79 79 220/ 21/ 29 1013.2 5 SE WRIGHTSVLE 0908 80 78 220/ 16/ 27 1013.8 225 S CAPE HAT 0850 81 81 210/ 16/ 19 1017.2 4/ 9 2/ 9 41 SE CHARLESTON 0910 81 81 210/ 21/ 25 1014.6 $$

USA.gov is the U.S. government's official web portal to all federal, state and local government web resources and services.